GW1941 Weather Reports


time (UTC)temp
C
wind
direction
speed
KPH
gust
KPH
rain 1hr
cm
rain 24hr
cm
rain mn
cm
humidity
%
barometer
mb
20260504060201 10 155 4.8 4.8 0.00 0.00 0.00 69 1016.0
20260504050629 10 223 4.8 4.8 0.00 0.00 0.00 66 1015.9
20260504050126 10 237 3.2 3.2 0.00 0.00 0.00 65 1015.9
20260504045623 10 199 4.8 4.8 0.00 0.00 0.00 65 1015.6
20260504045118 10 251 4.8 4.8 0.00 0.00 0.00 65 1015.8
20260504044616 10 215 3.2 4.8 0.00 0.00 0.00 66 1015.7
20260504044113 10 301 3.2 3.2 0.00 0.00 0.00 65 1015.6
20260504043610 10 232 3.2 3.2 0.00 0.00 0.00 66 1016.0
20260504043107 10 172 4.8 4.8 0.00 0.00 0.00 66 1015.9
20260504042604 10 235 3.2 3.2 0.00 0.00 0.00 67 1015.9
20260504042101 10 207 4.8 4.8 0.00 0.00 0.00 65 1015.7
20260504041556 10 238 3.2 3.2 0.00 0.00 0.00 64 1015.9
20260504041053 10 225 3.2 3.2 0.00 0.00 0.00 64 1015.8
20260504040551 10 331 0.0 0.0 0.00 0.00 0.00 64 1015.8
20260504040047 10 232 1.6 3.2 0.00 0.00 0.00 63 1015.7
20260504035544 10 242 4.8 4.8 0.00 0.00 0.00 62 1015.5
20260504035040 10 250 1.6 3.2 0.00 0.00 0.00 61 1015.7
20260504034538 10 243 1.6 1.6 0.00 0.00 0.00 61 1015.7
20260504034035 10 240 1.6 1.6 0.00 0.00 0.00 60 1015.4
20260504033533 10 240 3.2 3.2 0.00 0.00 0.00 59 1015.3
20260504033030 9 241 1.6 3.2 0.00 0.00 0.00 60 1015.4
20260504032527 9 256 0.0 0.0 0.00 0.00 0.00 60 1015.3
20260504032024 9 246 0.0 0.0 0.00 0.00 0.00 59 1015.3
20260504031521 9 252 0.0 0.0 0.00 0.00 0.00 58 1015.4
20260504031017 9 251 0.0 0.0 0.00 0.00 0.00 58 1015.6
20260504030514 9 253 0.0 0.0 0.00 0.00 0.00 58 1015.4
20260504030010 9 287 0.0 0.0 0.00 0.00 0.00 57 1015.3
20260504025507 8 252 0.0 0.0 0.00 0.00 0.00 58 1015.5
20260504025004 8 252 0.0 0.0 0.00 0.00 0.00 56 1015.5
20260504024502 8 264 0.0 0.0 0.00 0.00 0.00 57 1015.3
20260504023959 8 255 0.0 0.0 0.00 0.00 0.00 58 1015.4
20260504023455 8 261 0.0 0.0 0.00 0.00 0.00 59 1015.5
20260504022950 8 255 0.0 0.0 0.00 0.00 0.00 57 1015.5
20260504022447 8 252 0.0 0.0 0.00 0.00 0.00 59 1015.2
20260504021943 8 256 0.0 0.0 0.00 0.00 0.00 60 1015.3
20260504021441 8 257 0.0 0.0 0.00 0.00 0.00 56 1015.2
20260504020938 8 261 0.0 0.0 0.00 0.00 0.00 59 1015.3
20260504020434 8 261 0.0 0.0 0.00 0.00 0.00 58 1015.3
20260504015931 9 261 0.0 0.0 0.00 0.00 0.00 60 1015.3
20260504015427 9 257 1.6 1.6 0.00 0.00 0.00 58 1015.4
20260504014923 9 254 0.0 0.0 0.00 0.00 0.00 56 1015.5
20260504014419 9 258 0.0 0.0 0.00 0.00 0.00 56 1015.2
20260504013916 9 258 0.0 0.0 0.00 0.00 0.00 55 1015.1
20260504013415 9 260 0.0 0.0 0.00 0.00 0.00 56 1015.2
20260504012910 9 254 0.0 0.0 0.00 0.00 0.00 56 1015.0
20260504012409 9 257 0.0 0.0 0.00 0.00 0.00 56 1015.0
20260504011906 9 254 0.0 0.0 0.00 0.00 0.00 57 1015.1
20260504011403 9 252 0.0 0.0 0.00 0.00 0.00 57 1015.0
20260504010858 9 258 0.0 0.0 0.00 0.00 0.00 59 1015.1
20260504010354 9 256 0.0 0.0 0.00 0.00 0.00 58 1014.7
20260504005851 9 256 0.0 0.0 0.00 0.00 0.00 57 1014.6
20260504005348 10 260 0.0 0.0 0.00 0.00 0.00 56 1014.5
20260504004845 10 260 0.0 0.0 0.00 0.00 0.00 57 1014.5
20260504004343 10 261 0.0 0.0 0.00 0.00 0.00 56 1014.3
20260504003839 10 261 0.0 0.0 0.00 0.00 0.00 53 1014.4
20260504003336 10 261 0.0 0.0 0.00 0.00 0.00 52 1014.4
20260504002833 11 262 0.0 0.0 0.00 0.00 0.00 53 1014.3
20260504002330 11 262 0.0 0.0 0.00 0.00 0.00 50 1014.5
20260504001827 11 261 0.0 0.0 0.00 0.00 0.00 47 1014.2
20260504001324 12 256 0.0 0.0 0.00 0.00 0.00 45 1014.3
20260504000821 12 256 0.0 0.0 0.00 0.00 0.00 42 1014.0
20260504000318 12 258 0.0 0.0 0.00 0.00 0.00 45 1014.2
20260503235816 12 258 0.0 0.0 0.00 0.00 0.00 42 1014.3
20260503235313 12 258 0.0 0.0 0.00 0.00 0.00 40 1014.1
20260503234810 13 268 0.0 0.0 0.00 0.00 0.00 40 1013.9
20260503234308 13 247 0.0 0.0 0.00 0.00 0.00 41 1013.8
20260503233806 13 252 1.6 3.2 0.00 0.00 0.00 39 1013.9
20260503233301 13 257 0.0 0.0 0.00 0.00 0.00 39 1013.7
20260503232759 13 244 0.0 0.0 0.00 0.00 0.00 38 1013.6
20260503232256 13 235 1.6 3.2 0.00 0.00 0.00 38 1013.9
20260503231754 13 266 0.0 0.0 0.00 0.00 0.00 38 1013.9
20260503231251 13 255 0.0 1.6 0.00 0.00 0.00 37 1013.7
20260503230746 14 250 1.6 1.6 0.00 0.00 0.00 36 1013.7
20260503230244 14 137 4.8 8.0 0.00 0.00 0.00 36 1013.5
20260503225741 14 250 3.2 4.8 0.00 0.00 0.00 35 1013.7
20260503225241 14 16 3.2 9.7 0.00 0.00 0.00 36 1013.5
20260503224738 14 235 3.2 3.2 0.00 0.00 0.00 36 1013.6
20260503224236 15 230 3.2 3.2 0.00 0.00 0.00 36 1013.6
20260503223734 15 285 1.6 3.2 0.00 0.00 0.00 34 1013.8
20260503223231 15 279 3.2 3.2 0.00 0.00 0.00 35 1013.5
20260503222727 15 263 3.2 3.2 0.00 0.00 0.00 34 1013.3
20260503222225 15 272 8.0 9.7 0.00 0.00 0.00 34 1013.4
20260503221723 15 186 4.8 8.0 0.00 0.00 0.00 35 1013.6
20260503221221 15 289 3.2 4.8 0.00 0.00 0.00 34 1013.5
20260503220717 15 308 6.4 12.9 0.00 0.00 0.00 34 1013.3
20260503220214 15 256 6.4 8.0 0.00 0.00 0.00 35 1013.5
20260503215711 15 146 6.4 8.0 0.00 0.00 0.00 35 1013.4
20260503215208 15 293 3.2 4.8 0.00 0.00 0.00 35 1013.2
20260503214706 15 112 4.8 8.0 0.00 0.00 0.00 35 1013.4
20260503214201 15 314 8.0 11.3 0.00 0.00 0.00 33 1013.2
20260503213655 15 257 3.2 3.2 0.00 0.00 0.00 34 1013.3
20260503213152 16 189 4.8 8.0 0.00 0.00 0.00 32 1013.2
20260503212649 16 268 3.2 4.8 0.00 0.00 0.00 32 1013.2
20260503212146 15 260 0.0 1.6 0.00 0.00 0.00 33 1013.0
20260503211644 15 311 8.0 11.3 0.00 0.00 0.00 32 1012.9
20260503211139 15 109 3.2 4.8 0.00 0.00 0.00 34 1013.1
20260503210636 15 141 8.0 11.3 0.00 0.00 0.00 32 1013.1
20260503210132 15 324 11.3 20.9 0.00 0.00 0.00 31 1013.2
20260503205628 15 131 8.0 9.7 0.00 0.00 0.00 33 1013.2
20260503205125 15 114 8.0 14.5 0.00 0.00 0.00 32 1013.2
20260503204621 15 227 1.6 1.6 0.00 0.00 0.00 33 1013.1
20260503204119 15 117 11.3 14.5 0.00 0.00 0.00 32 1012.9
20260503203616 16 224 6.4 8.0 0.00 0.00 0.00 33 1013.0
20260503203114 16 214 3.2 3.2 0.00 0.00 0.00 32 1013.1
20260503202611 16 235 6.4 9.7 0.00 0.00 0.00 31 1013.1
20260503202109 15 300 6.4 11.3 0.00 0.00 0.00 32 1013.0
20260503201607 15 123 4.8 8.0 0.00 0.00 0.00 33 1012.8
20260503201104 16 130 4.8 8.0 0.00 0.00 0.00 34 1012.9
20260503200600 16 178 4.8 4.8 0.00 0.00 0.00 32 1013.1
20260503200056 16 178 4.8 8.0 0.00 0.00 0.00 34 1012.9
20260503195554 16 266 0.0 1.6 0.00 0.00 0.00 32 1013.1
20260503195050 16 268 1.6 1.6 0.00 0.00 0.00 35 1013.1
20260503194547 15 253 6.4 9.7 0.00 0.00 0.00 33 1012.9
20260503194047 15 296 3.2 4.8 0.00 0.00 0.00 35 1013.1
20260503193544 15 209 4.8 11.3 0.00 0.00 0.00 35 1013.2
20260503193039 16 289 8.0 12.9 0.00 0.00 0.00 33 1013.5
20260503192536 15 93 8.0 9.7 0.00 0.00 0.00 34 1013.2
20260503192032 15 169 3.2 4.8 0.00 0.00 0.00 35 1013.3
20260503191528 15 258 4.8 8.0 0.00 0.00 0.00 35 1013.4
20260503191025 15 276 8.0 12.9 0.00 0.00 0.00 34 1013.5
20260503190522 15 261 3.2 4.8 0.00 0.00 0.00 35 1013.7
20260503190019 15 149 11.3 14.5 0.00 0.00 0.00 36 1013.4
20260503185516 15 13 4.8 8.0 0.00 0.00 0.00 36 1013.6
20260503185015 15 238 4.8 11.3 0.00 0.00 0.00 38 1013.6
20260503184512 15 220 4.8 4.8 0.00 0.00 0.00 37 1013.7
20260503184008 15 298 0.0 0.0 0.00 0.00 0.00 37 1013.7
20260503183505 14 238 4.8 8.0 0.00 0.00 0.00 36 1013.7
20260503183002 15 284 1.6 3.2 0.00 0.00 0.00 38 1013.7
20260503182500 15 301 6.4 14.5 0.00 0.00 0.00 36 1013.8
20260503181958 15 359 11.3 14.5 0.00 0.00 0.00 36 1013.7
20260503181454 13 283 8.0 9.7 0.00 0.00 0.00 37 1013.8
20260503180950 15 269 6.4 9.7 0.00 0.00 0.00 34 1013.9
20260503180449 15 285 6.4 11.3 0.00 0.00 0.00 35 1013.9
20260503175945 15 200 8.0 12.9 0.00 0.00 0.00 36 1014.0
20260503175443 15 270 0.0 0.0 0.00 0.00 0.00 40 1013.5
20260503174939 15 293 3.2 8.0 0.00 0.00 0.00 36 1013.8
20260503174437 15 241 3.2 3.2 0.00 0.00 0.00 39 1014.0
20260503173932 13 199 1.6 3.2 0.00 0.00 0.00 39 1013.5
20260503173428 13 272 8.0 11.3 0.00 0.00 0.00 38 1013.5
20260503172925 13 128 4.8 8.0 0.00 0.00 0.00 42 1013.9
20260503172423 13 262 3.2 3.2 0.00 0.00 0.00 37 1013.9
20260503171919 13 267 4.8 8.0 0.00 0.00 0.00 36 1013.9
20260503171416 13 267 3.2 4.8 0.00 0.00 0.00 36 1013.9
20260503170914 13 261 4.8 12.9 0.00 0.00 0.00 39 1013.9
20260503170409 13 129 8.0 14.5 0.00 0.00 0.00 38 1013.9
20260503150802 12 136 6.4 8.0 0.00 0.00 0.00 45 1014.3
20260503150258 11 212 3.2 8.0 0.00 0.00 0.00 46 1014.4
20260503140222 11 236 3.2 4.8 0.00 0.00 0.00 46 1014.4
20260503131152 9 268 3.2 4.8 0.00 0.00 0.00 55 1014.2
20260503130649 9 268 0.0 1.6 0.00 0.00 0.00 58 1014.1
20260503130147 9 284 3.2 4.8 0.00 0.00 0.00 56 1014.1
20260503120112 8 248 1.6 3.2 0.00 0.00 0.00 64 1013.8
20260503110539 7 290 1.6 1.6 0.00 0.00 0.00 66 1013.0
20260503090426 6 263 0.0 0.0 0.00 0.00 0.00 73 1011.6
20260503081353 6 261 0.0 0.0 0.00 0.00 0.00 70 1011.2
20260503080849 6 257 1.6 1.6 0.00 0.00 0.00 69 1011.1
20260503080347 6 264 0.0 0.0 0.00 0.00 0.00 70 1011.0
20260503072823 7 263 0.0 0.0 0.00 0.00 0.00 63 1010.7
20260503072320 8 267 0.0 1.6 0.00 0.00 0.00 62 1010.7
20260503071816 8 261 0.0 0.0 0.00 0.00 0.00 61 1010.5
20260503071314 8 282 1.6 1.6 0.00 0.00 0.00 61 1010.6
20260503070810 8 265 1.6 1.6 0.00 0.00 0.00 60 1010.6
20260503070308 8 287 3.2 3.2 0.00 0.00 0.00 59 1010.7